This is the latest recevied weather packets stored in our database for station/object KG2V. If no packets are shown the sender has not sent any weather packets the latest 1 day(s).
| Time | Temp. | Humidity | Pressure | Rain* | Wind** | Luminosity | Snow |
|---|---|---|---|---|---|---|---|
| 1778091807 | 7.78° C | 91% | 1005.9 hPa | 0 mm | - | 145 W/m² | - |
| 1778091505 | 7.78° C | 92% | 1005.9 hPa | 0 mm | - | 162 W/m² | - |
| 1778090595 | 7.78° C | 92% | 1006.2 hPa | 0 mm | - | 100 W/m² | - |
| 1778088474 | 7.78° C | 93% | 1005.6 hPa | 0 mm | - | 159 W/m² | - |
| 1778088171 | 7.78° C | 94% | 1005.6 hPa | 0 mm | - | 174 W/m² | - |
| 1778086052 | 7.78° C | 98% | 1005.3 hPa | 0 mm | - | 223 W/m² | - |
| 1778085140 | 7.22° C | 99% | 1005.3 hPa | 0 mm | - | 261 W/m² | - |
| 1778084231 | 7.22° C | 99% | 1005.4 hPa | 0 mm | - | 178 W/m² | - |
| 1778083929 | 7.22° C | 99% | 1005.3 hPa | 0 mm | - | 186 W/m² | - |
| 1778083016 | 6.67° C | 99% | 1005.4 hPa | 0 mm | - | 183 W/m² | - |
| 1778080974 | 7.22° C | 99% | 1005.4 hPa | 0 mm | - | 134 W/m² | - |
| 1778080673 | 6.67° C | 99% | 1005.3 hPa | 0 mm | - | 212 W/m² | - |
| 1778080369 | 6.67° C | 99% | 1005 hPa | 0 mm | - | 202 W/m² | - |
| 1778079763 | 6.67° C | 99% | 1005 hPa | 0 mm | - | 123 W/m² | - |
| 1778079156 | 6.67° C | 99% | 1005 hPa | 0 mm | - | 127 W/m² | - |
| 1778077644 | 6.67° C | 99% | 1005.1 hPa | 0 mm | - | 92 W/m² | - |
| 1778076435 | 6.11° C | 99% | 1004.9 hPa | 1.27 mm | - | 98 W/m² | - |
| 1778071889 | 6.11° C | 99% | 1004.7 hPa | 1.78 mm | - | 28 W/m² | - |
| 1778071587 | 6.11° C | 99% | 1004.7 hPa | 1.78 mm | - | 31 W/m² | - |
| 1778070075 | 5.56° C | 99% | 1004.5 hPa | 0 mm | - | 45 W/m² | - |
| 1778066746 | 6.11° C | 99% | 1004.6 hPa | 1.78 mm | - | 9 W/m² | - |
| 1778065233 | 6.11° C | 99% | 1004.3 hPa | 1.78 mm | - | 9 W/m² | - |
| 1778064324 | 6.67° C | 99% | 1004.1 hPa | 1.27 mm | - | 6 W/m² | - |
| 1778064022 | 6.67° C | 99% | 1004.3 hPa | 1.27 mm | - | 4 W/m² | - |
| 1778063719 | 6.67° C | 99% | 1004.3 hPa | 1.78 mm | - | 4 W/m² | - |
* Rain latest hour (hover to see other rain measurements)
** Current wind speed in m/s (hover to see current wind gust speed)